Regional Weather Roundup
Issued by NWS Midland/Odessa, TX

Skip options and go directly to product.
Home | Oldest Version | Previous Version | Current Version | All | Text Only | Save Text | Print | Product List | Glossary On

Skip product version selection by date and time.   
615
ASUS44 KMAF 291901
RWRMAF
MIDLAND AREA WEATHER ROUNDUP
NATIONAL WEATHER SERVICE MIDLAND TX
200 PM CDT SAT AUG 29 2015

...IN SOUTHWEST TEXAS AND SOUTHEAST NEW MEXICO...

CITY           SKY/WX    TMP DP  RH WIND       PRES   REMARKS
ALPINE         PTSUNNY   76  56  50 E8        30.29F
ANDREWS        CLOUDY    75  62  63 E6        30.18F
ARTESIA        SUNNY     82  59  44 CALM      30.18F
BIG SPRING     CLOUDY    78  61  56 W5        30.17S
CARLSBAD       SUNNY     87  55  33 NE9       30.15F
DRYDEN           N/A     85  60  42 VRB6      30.09F
FORT STOCKTON  CLOUDY    78  56  46 E6        30.16F
GUAD PASS      MOSUNNY   79  55  43 E16G22    30.29F
HOBBS          MOSUNNY   79  59  50 CALM      30.21F
MARFA          PTSUNNY   81  52  36 NE14      30.25F
MIDLAND AIRPK  CLOUDY    81  51  35 SW9       30.17F
MIDLAND INTL   LGT RAIN  76  58  53 NW9       30.16F
ODESSA         CLOUDY    79  53  40 NE15      30.16F
PECOS          MOSUNNY   84  53  33 E9        30.14F
PRESIDIO       NOT AVBL
SEMINOLE       CLOUDY    77  61  58 S7        30.20F
SNYDER         LGT RAIN  74  62  64 N8        30.14F
WINK           PTSUNNY   83  58  42 CALM      30.13F
$$
...OTHER STATIONS IN TEXAS...

CITY           SKY/WX    TMP DP  RH WIND       PRES   REMARKS
ABILENE        CLOUDY    88  59  37 NW12      30.07F
AMARILLO       SUNNY     87  60  40 NE7G17    30.17F
AUSTIN         PTSUNNY   91  64  40 CALM      30.02F
BROWNSVILLE    PTSUNNY   88  68  51 E9        29.98F
CORPUS CHRISTI MOSUNNY   92  65  40 E15G21    30.00F
DALLAS FTW     CLOUDY    95  63  34 S13       29.96F
DEL RIO        SUNNY     93  63  36 NE6       30.01F
EL PASO        MOSUNNY   86  55  34 VRB5      30.15F
HOUSTON INT    MOSUNNY   89  64  43 VRB7      30.03F
LUBBOCK        CLOUDY    78  63  59 CALM      30.18F
SAN ANGELO     CLOUDY    88  59  37 W7        30.09F
SAN ANTONIO    MOSUNNY   90  62  39 S8        30.04F
WACO           SUNNY     93  62  35 S14       30.01F
WICHITA FALLS  NOT AVBL
$$
...OTHER LOCATIONS IN NEW MEXICO...

CITY           SKY/WX    TMP DP  RH WIND       PRES   REMARKS
ALAMAGORDO     SUNNY     86  50  28 SE6       30.18F
ALBUQUERQUE    MOSUNNY   86  48  26 VRB7      30.27F
CANNON AFB     MOSUNNY   86  56  35 E14G22    30.19F
CLOVIS         MOSUNNY   84  57  39 SE12G21   30.22S
HOLLOMAN AFB   SUNNY     88  54  30 VRB6      30.15F
ROSWELL        SUNNY     87  54  32 N3        30.18F
RUIDOSO        MOSUNNY   73  54  49 MISG      30.40F
SANTA FE       MOSUNNY   82  44  26 VRB3      30.33F
TRUTH OR CONSE SUNNY     86  54  33 VRB5      30.22F
TUCUMCARI      SUNNY     90  51  26 VRB6      30.17F
$$

USA.gov is the U.S. government's official web portal to all federal, state and local government web resources and services.